Regional Weather Roundup
Issued by NWS

Home | Current Version | Previous Version | Graphics & Text | Print | Product List | Glossary On
Versions: 1 2 3 4 5 6 7 8 9 10 11 12 13 14 15 16 17 18 19 20 21 22 23 24 25 26 27 28 29 30 31 32 33 34 35 36 37 38 39 40 41 42 43 44 45 46 47 48 49 50
000
ASUS43 KOAX 201602
RWRNE

WEATHER ROUNDUP FOR NEBRASKA
NATIONAL WEATHER SERVICE OMAHA NE
1100 AM CDT WED SEP 20 2017

NOTES: SATELLITE DATA IS BEING USED TO AUGMENT CLOUD COVER ABOVE
       12000 FEET.
       "FAIR" INDICATES FEW OR NO CLOUDS BELOW 12,000 FEET WITH NO
       SIGNIFICANT WEATHER AND/OR OBSTRUCTIONS TO VISIBILITY.


NEZ001>004-019>022-054>056-201700-
NEBRASKA PANHANDLE

CITY           SKY/WX    TMP DP  RH WIND       PRES   REMARKS
SCOTTSBLUFF    SUNNY     61  29  29 NW16      29.94R
ALLIANCE       CLOUDY    62  25  24 W18       29.94R
CHADRON        SUNNY     62  21  20 SW17      29.90R
GORDON         FAIR      61  28  28 W18       29.91S
KIMBALL        CLOUDY    57  34  41 W12G17    30.00R
SIDNEY         CLOUDY    61  27  27 W7        29.99R
$$

NEZ057>060-069>072-079>082-201700-
SOUTHWEST NEBRASKA

CITY           SKY/WX    TMP DP  RH WIND       PRES   REMARKS
NORTH PLATTE   SUNNY     65  40  39 W13       29.96R
IMPERIAL       SUNNY     65  29  25 NW13      29.98F
LEXINGTON      SUNNY     65  42  44 NW7       29.94S
MCCOOK         SUNNY     69  36  29 NW10      29.96R
OGALLALA       SUNNY     64  32  31 CALM      29.97F
$$

NEZ005>010-023>029-035>040-094-201700-
NORTH CENTRAL NEBRASKA

CITY           SKY/WX    TMP DP  RH WIND       PRES   REMARKS
VALENTINE      SUNNY     65  35  33 W15       29.90R
AINSWORTH      SUNNY     63  44  49 SW12      29.91S
BROKEN BOW     SUNNY     65  44  46 W7        29.92S
O`NEILL        SUNNY     63  46  54 W6        29.90S
ORD            SUNNY     66  43  43 NW9       29.90R
THEDFORD       SUNNY     65  33  31 W9        29.95R
$$

NEZ041-046>049-061>064-073>077-083>087-201700-
SOUTH CENTRAL NEBRASKA

CITY           SKY/WX    TMP DP  RH WIND       PRES   REMARKS
GRAND ISLAND   SUNNY     68  47  46 N12       29.91R
AURORA         SUNNY     67  49  52 NW9       29.89S
HASTINGS       SUNNY     68  45  43 N8        29.91R
HEBRON         SUNNY     72  51  47 N10       29.87R
HOLDREGE       SUNNY     65  44  46 NW7       29.93S
KEARNEY        SUNNY     66  46  48 N12       29.93R
YORK           SUNNY     68  50  52 N9        29.88S
$$

NEZ011>018-030>034-042>045-201700-
NORTHEAST NEBRASKA

CITY           SKY/WX    TMP DP  RH WIND       PRES   REMARKS
NORFOLK        SUNNY     65  50  58 W9        29.88R
ALBION         SUNNY     66  50  56 NW8       29.90R
BLAIR          SUNNY     70  55  59 N14       29.82R
COLUMBUS       SUNNY     68  50  52 NW10      29.88R
FREMONT        SUNNY     70  54  56 NW15      29.84R
TEKAMAH        SUNNY     72  54  53 NW10      29.82R
WAYNE          SUNNY     64  51  61 NW9       29.88R
$$

NEZ050>053-065>068-078-088>093-201700-
SOUTHEAST NEBRASKA

CITY           SKY/WX    TMP DP  RH WIND       PRES   REMARKS
LINCOLN        SUNNY     74  51  44 N15       29.84R
OMAHA EPPLEY   SUNNY     73  55  53 N20       29.80R
BEATRICE       SUNNY     76  53  46 N13G20    29.83R
FALLS CITY     MOSUNNY   82  69  64 W13       29.76S
NEBRASKA CITY  CLOUDY    72  64  73 N8        29.79R
PLATTSMOUTH    SUNNY     73  55  52 N13G20    29.80R
$$

NEZ044-045-051>053-067-201700-
OMAHA AREA

CITY           SKY/WX    TMP DP  RH WIND       PRES   REMARKS
OMAHA EPPLEY   SUNNY     73  55  53 N20       29.80R
BLAIR          SUNNY     70  55  59 N14       29.82R
FREMONT        SUNNY     70  54  56 NW15      29.84R
MILLARD        SUNNY     73  56  55 N10G17    29.81S
OFFUTT AFB     SUNNY     73  54  50 N13G20    29.80R
PLATTSMOUTH    SUNNY     73  55  52 N13G20    29.80R
WAHOO          FAIR      71  54  54 N13G18    29.84R
$$



USA.gov is the U.S. government's official web portal to all federal, state and local government web resources and services.